Regional Weather Roundup
Issued by NWS

Home | Current Version | Previous Version | Text Only | Print | Product List | Glossary On
Versions: 1 2 3 4 5 6 7 8 9 10 11 12 13 14 15 16 17 18 19 20 21 22 23 24 25 26 27 28 29 30 31 32 33 34 35 36 37 38 39 40 41 42 43 44 45 46 47 48 49 50
000
ASUS43 KOAX 311402
RWRNE

WEATHER ROUNDUP FOR NEBRASKA
NATIONAL WEATHER SERVICE OMAHA NE
900 AM CDT TUE MAY 31 2016

NOTES: SATELLITE DATA IS BEING USED TO AUGMENT CLOUD COVER ABOVE
       12000 FEET.
       "FAIR" INDICATES FEW OR NO CLOUDS BELOW 12,000 FEET WITH NO
       SIGNIFICANT WEATHER AND/OR OBSTRUCTIONS TO VISIBILITY.

  * THESE STATIONS DO NOT REPORT WEATHER SUCH AS RAIN...SNOW OR FOG.

NEZ001>004-019>022-054>056-311500-
NEBRASKA PANHANDLE

CITY           SKY/WX    TMP DP  RH WIND       PRES   REMARKS
SCOTTSBLUFF    CLOUDY    51  42  71 NW9       30.12S
ALLIANCE       CLOUDY    52  43  71 MISG      30.10R
CHADRON        MOSUNNY   56  42  59 W8        30.07F
SIDNEY         CLOUDY    50  43  77 NW9       30.14R
$$

NEZ057>060-069>072-079>082-311500-
SOUTHWEST NEBRASKA

CITY           SKY/WX    TMP DP  RH WIND       PRES   REMARKS
NORTH PLATTE   PTSUNNY   57  44  62 N9        30.08R
IMPERIAL       SUNNY     56  45  66 N12       30.12R
LEXINGTON      CLOUDY    59  50  73 N13       30.05S
MCCOOK         MOSUNNY   59  50  72 N10       30.08R
$$

NEZ005>010-023>029-035>040-094-311500-
NORTH CENTRAL NEBRASKA

CITY           SKY/WX    TMP DP  RH WIND       PRES   REMARKS
VALENTINE      SUNNY     58  40  51 W12       30.01F
AINSWORTH      MOSUNNY   57  42  55 NW13      30.02R
BROKEN BOW     SUNNY     59  47  64 N18       30.03S
ORD            CLOUDY    59  49  69 N15       30.01R
$$

NEZ041-046>049-061>064-073>077-083>087-311500-
SOUTH CENTRAL NEBRASKA

CITY           SKY/WX    TMP DP  RH WIND       PRES   REMARKS
GRAND ISLAND   CLOUDY    61  52  72 N12       30.01R
AURORA         CLOUDY    60  57  88 N13       30.00R
HASTINGS       CLOUDY    61  52  72 N18       30.00R
KEARNEY *      CLOUDY    61  48  63 N15       30.03S
YORK           CLOUDY    63  57  82 N8        29.99R
$$

NEZ011>018-030>034-042>045-311500-
NORTHEAST NEBRASKA

CITY           SKY/WX    TMP DP  RH WIND       PRES   REMARKS
NORFOLK        CLOUDY    60  53  77 NW7       29.98R
ALBION         CLOUDY    60  50  69 N13G18    29.98S
BLAIR          CLOUDY    64  61  88 W6        29.94R
FREMONT        RAIN      63  61  95 W8        29.96S
TEKAMAH        RAIN      64  60  87 SW6       29.95R FOG
$$

NEZ050>053-065>068-078-088>093-311500-
SOUTHEAST NEBRASKA

CITY           SKY/WX    TMP DP  RH WIND       PRES   REMARKS
LINCOLN        CLOUDY    65  59  81 NW12      29.95S
OMAHA EPPLEY   CLOUDY    70  61  73 NW12      29.91R
BEATRICE       CLOUDY    65  59  80 NW12      29.95R
FALLS CITY     LGT RAIN  71  63  75 NW10      29.91R
NEBRASKA CITY  MOSUNNY   69  64  84 N8        29.92R
PLATTSMOUTH    MOSUNNY   70  65  84 NW10      29.91S
$$

NEZ044-045-051>053-067-311500-
OMAHA AREA

CITY           SKY/WX    TMP DP  RH WIND       PRES   REMARKS
OMAHA EPPLEY   CLOUDY    70  61  73 NW12      29.91R
BLAIR          CLOUDY    64  61  88 W6        29.94R
FREMONT        RAIN      63  61  95 W8        29.96S
OFFUTT AFB     PTSUNNY   69  64  84 W10       29.91R
PLATTSMOUTH    MOSUNNY   70  65  84 NW10      29.91S
WAHOO          DRIZZLE   64  61  91 NW8       29.96R
$$




USA.gov is the U.S. government's official web portal to all federal, state and local government web resources and services.